Regional Weather Roundup
Issued by NWS

Home | Current Version | Previous Version | Graphics & Text | Print | Product List | Glossary On
Versions: 1 2 3 4 5 6 7 8 9 10 11 12 13 14 15 16 17 18 19 20 21 22 23 24 25 26 27 28 29 30 31 32 33 34 35 36 37 38 39 40 41 42 43 44 45 46 47 48 49 50
000
ASUS43 KMKX 300721
RWRWI

WISCONSIN REGIONAL WEATHER ROUNDUP
NATIONAL WEATHER SERVICE MILWAUKEE/SULLIVAN WI
200 AM CDT THU JUL 30 2015

NOTE: "FAIR" INDICATES FEW OR NO CLOUDS BELOW 12,000 FEET WITH NO
SIGNIFICANT WEATHER AND/OR OBSTRUCTIONS TO VISIBILITY.

WIZ001-002-006>008-014>016-023>028-300800-
NORTHWEST WISCONSIN

CITY           SKY/WX    TMP DP  RH WIND       PRES   REMARKS
SUPERIOR ARPT  FAIR      64  55  74 W8        29.88R
ASHLAND        CLEAR     64  54  69 SW8       29.86S
HAYWARD        CLEAR     65  53  65 SW7       29.93R
SIREN          PTCLDY    65  55  68 W8        29.95S
CUMBERLAND     CLEAR     61  54  77 W5        29.97S
RICE LAKE      CLEAR     64  55  70 W7        29.97S
CHETEK         CLEAR     67  56  67 SW7       29.96S
LADYSMITH      CLEAR     65  55  69 SW8       29.96S
EAU CLAIRE     CLEAR     63  56  78 SW8       29.97S
MENOMONIE      CLEAR     67  56  68 W7        29.98S
NEW RICHMOND   CLEAR     66  55  66 W8        29.99S
OSCEOLA        CLEAR     67  56  69 W8        30.01R
$$

WIZ003>005-009-010-017-018-300800-
NORTH CENTRAL WISCONSIN

CITY           SKY/WX    TMP DP  RH WIND       PRES   REMARKS
MANITOWISH WTR CLEAR     61  55  78 W7        29.89S
ARBOR VITAE    CLEAR     65  53  65 W8G16     29.90S
WOODRUFF       CLEAR     65  53  65 W8G16     29.90S
RHINELANDER    CLEAR     65  53  65 W15       29.91F
EAGLE RIVER    CLEAR     65  51  59 W9G17     29.88F
LAND O LAKES   CLEAR     65  53  64 W6        29.88F
PHILLIPS       CLEAR     63  54  72 SW5       29.92S
TOMAHAWK       CLEAR     63  52  68 W7        29.93S
MEDFORD        CLEAR     61  55  81 SW6       29.96R
MERRILL        NOT AVBL
$$

WIZ029-030-035-036-043>047-300800-
CENTRAL WISCONSIN

CITY           SKY/WX    TMP DP  RH WIND       PRES   REMARKS
WAUSAU         CLEAR     68  54  60 W15G24    29.93S
MOSINEE        CLEAR     63  55  77 W10       29.96S
MARSHFIELD     CLEAR     64  53  67 W9        29.97S
STEVENS POINT  CLEAR     66  54  65 W9        29.96S
WAUPACA        CLEAR     67  56  66 SW8       29.95S
WAUTOMA        CLEAR     67  54  63 W8        29.97S
WISC RAPIDS    CLEAR     67  53  61 W8        29.98S
CAMP DOUGLAS   CLEAR     64  58  78 W9        29.99S
$$

WIZ011>013-019>022-031-037>040-048>050-300800-
NORTHEAST WISCONSIN

CITY           SKY/WX    TMP DP  RH WIND       PRES   REMARKS
ANTIGO         CLEAR     64  55  72 W12       29.93S
SHAWANO        CLEAR     70  55  60 W8        29.91S
OCONTO         CLEAR     66  56  70 SW8       29.88S
STURGEON BAY   CLEAR     70  55  60 W13       29.90S
GREEN BAY      CLEAR     69  55  60 W8        29.91F
MANITOWOC      CLEAR     69  57  65 MISG      29.92F
APPLETON       CLEAR     64  54  68 W8        29.94S
CLINTONVILLE   CLEAR     64  54  68 SW6       29.92S
OSHKOSH        CLEAR     69  53  56 W6        29.94F
$$

WIZ032>034-041-042-053>061-300800-
SOUTHWEST WISCONSIN

CITY           SKY/WX    TMP DP  RH WIND       PRES   REMARKS
LA CROSSE      CLEAR     72  55  55 W13       30.01S
SPARTA         CLEAR     63  53  71 CALM      30.02R
VIROQUA        CLEAR     62  58  84 W7        30.04S
BOSCOBEL       CLEAR     63  59  87 S5        30.04S
PRAIRIE DU CHI CLEAR     67  57  69 N3        30.05S
PLATTEVILLE    CLEAR     62  59  87 W7        30.07R
$$

WIZ056-057-062-063-064-067-068-300800-
SOUTH CENTRAL WISCONSIN

CITY           SKY/WX    TMP DP  RH WIND       PRES   REMARKS
REEDSBURG      CLEAR     65  56  70 SW6       30.01S
BARABOO/DELLS  CLEAR     66  53  62 W6        30.01S
LONE ROCK      CLEAR     64  57  78 W3        30.03S
MINERAL POINT  CLEAR     63  59  88 W7        30.06S
MADISON        CLEAR     69  55  60 CALM      30.01S
MIDDLETON      CLEAR     65  55  68 W9        30.02S
WATERTOWN      CLEAR     64  56  76 SW6       29.99F
MONROE         CLEAR     64  57  77 W13       30.04F
JANESVILLE     CLEAR     64  55  72 W5        30.01F
$$

WIZ051-052-058>065-066-070>072-300800-
SOUTHEAST WISCONSIN

CITY           SKY/WX    TMP DP  RH WIND       PRES   REMARKS
MILWAUKEE      CLEAR     71  53  52 W7        29.98F
WAUKESHA       CLEAR     66  52  59 W10       30.00S
MILWAUKEE/TIMM CLEAR     68  52  56 W9        29.98F
RACINE         CLEAR     68  53  58 W8        30.00F
BURLINGTON     CLEAR     60  54  80 SW5       30.00F
KENOSHA        CLEAR     63  55  75 W8        30.00F
FOND DU LAC    CLEAR     65  55  70 SW7       29.96F
SHEBOYGAN      CLEAR     62  54  74 SW6       29.94F
WEST BEND      CLEAR     68  52  56 W8        29.97S
JUNEAU         CLEAR     60  55  82 SW8       30.00S
$$

LSZ147-162-300800-
LAKE SUPERIOR

STATION/POSITION TIME  TEMP    WIND        PRES    WAVE
                       AIR SEA DIR/SP/G            HT/PER
                 (UTC) (F)     (DEG/KT/KT) (MB)    (FT/S)
W MID LAKE BUOY  0650   62 55  240/ 19/ 21 1007.0F   3/ 5
DEVILS ISLAND    0700   65     240/ 24/ 26 1009.2F
PORT WING        0600   72     250/ 14/ 20 1010.8S
SAXON HARBOR     0600   71                 1010.5
$$

LMZ867-665-643>646-300800-
LAKE MICHIGAN

STATION/POSITION TIME  TEMP    WIND        PRES    WAVE
                       AIR SEA DIR/SP/G            HT/PER
                 (UTC) (F)     (DEG/KT/KT) (MB)    (FT/S)
CHAMBERS ISLAND  0600   71     220/  8/ 16 1010.8S
S GREEN BAY BUOY 0500   71 71  230/ 14/ 16 1013.4S
N MID LAKE BUOY  0650   73 70  250/ 21/ 25 1008.9F   3/ 4
NORTHPORT PIER   0600   74     270/  6/ 16 1010.5S
SISTER BAY       0614   74     270/ 19/ 22   N/A
ALGOMA LAKESHORE 0612          250/  5/  8   N/A
SHEBOYGAN LAKESH 0700   69     240/ 10/ 11 1013.8F
PORT WASHINGTON  0600   70     260/  7/ 10 1014.9F
ATWATER BUOY     0700   71     240/  8/ 10 1016.2F
MILWAUKEE LAKESH 0700   73     260/  9/ 12   N/A
KENOSHA   LAKESH 0700   71     270/  9/ 12 1015.2S
$$

TC  - TEMPERATURE IN CELSIUS
VSB - VISIBILITY IN STATUTE MILES
WCI - WIND CHILL INDEX
HX  - HEAT INDEX




USA.gov is the U.S. government's official web portal to all federal, state and local government web resources and services.